Ketchikan, AK

10:31 PM AKDT on September 20, 2018 (GMT -0800)
Ketchikan International

Weather History for PAKT - November, 2017

Change the Weather History Date:

Tuesday, November 21, 2017

  Actual Average Record
Temperature  
Mean Temperature 40 °F -  
Max Temperature 43 °F 42 °F 58 °F (1949)
Min Temperature 37 °F 33 °F 6 °F (1996)
Degree Days  
Heating Degree Days 25    
Moisture  
Dew Point 36 °F    
Average Humidity 88    
Maximum Humidity 93    
Minimum Humidity 76    
Precipitation  
Precipitation 0.23 in - - ()
Sea Level Pressure  
Sea Level Pressure 29.74 in    
Wind  
Wind Speed 8 mph (WSW)    
Max Wind Speed 14 mph    
Max Gust Speed 21 mph    
Visibility 10 miles    
Events Rain    
Averages and records for this station are not official NWS values.
T = Trace of Precipitation, MM = Missing Value Source: NWS Daily Summary

Daily Weather History Graph

Daily Weather History Graph

Search for Another Location

Airport or City:

Astronomy

Nov. 21, 2017 Rise Set
Actual Time 7:33 AM AKST 3:32 PM AKST
Civil Twilight 6:50 AM AKST 4:14 PM AKST
Nautical Twilight 6:04 AM AKST 5:00 PM AKST
Astronomical Twilight 5:21 AM AKST 5:43 PM AKST
Moon 10:15 AM AKST 6:15 PM AKST
Length of Visible Light 9h 24m
Length of Day
7h 58m
Waxing Crescent, 10% of the Moon is Illuminated
Nov 21
Waxing Crescent
Nov 26
First Quarter
Dec 3
Full
Dec 9
Last Quarter
Dec 17
New

Hourly Weather History & Observations

Time (AKST) Temp. Windchill Dew Point Humidity Pressure Visibility Wind Dir Wind Speed Gust Speed Precip Events Conditions
12:53 AM 39.9 °F 32.5 °F 35.1 °F 83% 29.90 in 10.0 mi SSE 12.7 mph - 0.03 in Rain Light Rain
1:25 AM 39.9 °F 32.5 °F 35.1 °F 83% 29.90 in 10.0 mi SSE 12.7 mph 20.7 mph 0.02 in Rain Light Rain
1:53 AM 39.9 °F 32.1 °F 36.0 °F 86% 29.91 in 6.0 mi SSE 13.8 mph - 0.03 in Rain Light Rain
2:53 AM 39.9 °F 34.5 °F 36.0 °F 86% 29.91 in 10.0 mi South 8.1 mph - 0.04 in Rain Light Rain
3:53 AM 39.9 °F 32.9 °F 36.0 °F 86% 29.91 in 6.0 mi SSE 11.5 mph - 0.02 in Rain Light Rain
4:53 AM 39.0 °F 33.4 °F 37.0 °F 93% 29.92 in 7.0 mi South 8.1 mph 20.7 mph 0.06 in Rain Light Rain
5:53 AM 39.0 °F 34.0 °F 37.0 °F 93% 29.91 in 10.0 mi South 6.9 mph - 0.04 in Rain Light Rain
6:06 AM 39.2 °F 35.9 °F 37.4 °F 93% 29.90 in 10.0 mi South 4.6 mph - N/A Rain Light Rain
6:53 AM 39.2 °F 35.0 °F 37.4 °F 93% 29.89 in 10.0 mi South 5.8 mph - N/A Rain Light Rain
7:53 AM 39.9 °F - 37.0 °F 89% 29.90 in 10.0 mi Calm Calm - 0.01 in Rain Light Rain
8:53 AM 39.2 °F 35.9 °F 37.4 °F 93% 29.88 in 10.0 mi NW 4.6 mph - N/A   Overcast
9:53 AM 41.0 °F 39.0 °F 37.4 °F 87% 29.85 in 10.0 mi NW 3.5 mph - N/A   Overcast
10:53 AM 43.0 °F 38.8 °F 37.0 °F 80% 29.80 in 10.0 mi NW 6.9 mph - N/A   Scattered Clouds
11:53 AM 43.0 °F 37.7 °F 37.0 °F 80% 29.77 in 10.0 mi NW 9.2 mph - N/A   Partly Cloudy
12:53 PM 43.0 °F 38.2 °F 36.0 °F 76% 29.71 in 10.0 mi WNW 8.1 mph - N/A   Clear
1:53 PM 39.2 °F 32.0 °F 37.4 °F 93% 29.67 in 10.0 mi WNW 11.5 mph - N/A   Scattered Clouds
2:53 PM 39.2 °F 32.5 °F 35.6 °F 87% 29.63 in 10.0 mi WNW 10.4 mph - N/A   Scattered Clouds
3:53 PM 39.2 °F 32.5 °F 35.6 °F 87% 29.60 in 10.0 mi WNW 10.4 mph - N/A   Clear
4:53 PM 39.0 °F 33.4 °F 36.0 °F 89% 29.57 in 10.0 mi NNW 8.1 mph - N/A   Clear
5:53 PM 39.0 °F - 36.0 °F 89% 29.57 in 10.0 mi Calm Calm - N/A   Clear
6:53 PM 37.0 °F - 34.0 °F 89% 29.57 in 10.0 mi Calm Calm - N/A   Mostly Cloudy
7:53 PM 37.9 °F 34.4 °F 35.1 °F 89% 29.57 in 10.0 mi NNW 4.6 mph - N/A   Overcast
8:53 PM 39.0 °F 36.8 °F 36.0 °F 89% 29.57 in 10.0 mi SSE 3.5 mph - N/A   Overcast
9:53 PM 39.0 °F 36.8 °F 35.1 °F 86% 29.55 in 10.0 mi West 3.5 mph - 0.00 in   Overcast
10:53 PM 39.0 °F - 36.0 °F 89% 29.55 in 10.0 mi Calm Calm - 0.00 in   Overcast
11:37 PM 37.9 °F - 36.0 °F 93% 29.55 in 10.0 mi Calm Calm - 0.00 in Rain Light Rain
11:53 PM 37.9 °F 35.5 °F 36.0 °F 93% 29.56 in 10.0 mi WSW 3.5 mph - 0.00 in Rain Light Rain